Regional Weather Roundup
Issued by NWS

Home | Current Version | Previous Version | Graphics & Text | Print | Product List | Glossary On
Versions: 1 2 3 4 5 6 7 8 9 10 11 12 13 14 15 16 17 18 19 20 21 22 23 24 25 26 27 28 29 30 31 32 33 34 35 36 37 38 39 40 41 42 43 44 45 46 47 48 49 50
500
ASUS45 KBOU 081807
RWRCO

WEATHER ROUNDUP FOR COLORADO
NATIONAL WEATHER SERVICE DENVER/BOULDER CO
1100 AM MST THU DEC 08 2016

NOTE: "FAIR" INDICATES FEW OR NO CLOUDS BELOW 12000 FEET WITH NO
SIGNIFICANT WEATHER AND/OR OBSTRUCTIONS TO VISIBILITY.

COZ001>005-013-030-031-081900-
...NORTHWEST COLORADO...

CITY           SKY/WX    TMP DP  RH WIND       PRES   REMARKS
CRAIG          FAIR      11  -2  56 NE8       30.30F WCI  -1
HAYDEN         PTSUNNY    7  -6  56 SE8       30.27F WCI  -6
MEEKER         CLOUDY    11   2  67 CALM      30.28F
MOUNT WERNER   NOT AVBL
STEAMBOAT SPGS FAIR       2  -5  69 CALM      30.27F
WALDEN           N/A     -8 -15  71 CALM      30.21F
$$

COZ006>008-011-081900-
...WEST CENTRAL VALLEYS...

CITY           SKY/WX    TMP DP  RH WIND       PRES   REMARKS
GRAND JUNCTION CLOUDY    25   6  44 S9        30.36F WCI  15
MONTROSE       CLOUDY    23   7  50 NW3       30.36F
EAGLE          PTSUNNY   10  -2  56 CALM      30.39
RIFLE          CLOUDY    17   5  59 CALM      30.36F
DELTA          CLOUDY    26   5  40 CALM      30.38S
NUCLA          CLOUDY    23   3  42 NW3       30.37S
$$

COZ017>023-064>068-081900-
...SOUTHWEST COLORADO...

CITY           SKY/WX    TMP DP  RH WIND       PRES   REMARKS
DURANGO        CLOUDY    27   0  31 VRB6      30.33S WCI  20
CORTEZ         CLOUDY    32   7  35 S5        30.33S WCI  27
PAGOSA SPRINGS PTSUNNY   24  -3  31 CALM      30.31F
TELLURIDE      CLOUDY    25  -8  23 SE3       30.25S
WOLF CREEK PAS FAIR       9 -13  37 SW17G23   30.23S WCI -10
$$

COZ009-010-012-014-032>034-037-058>063-081900-
...CENTRAL COLORADO...

CITY           SKY/WX    TMP DP  RH WIND       PRES   REMARKS
ASPEN          NOT AVBL
BUENA VISTA    CLOUDY    18  -2  40 SE6       30.20F WCI  10
COPPER MTN     CLOUDY    12  -6  44 MISG      30.08S
BERTHOUD PASS  PTSUNNY    1  -9  60 W20G33    30.01F WCI -20
COTTONWOOD PAS PTSUNNY   21   0  39 S6        30.13F WCI  14
GUNNISON       FLURRIES  10  -3  55 NE3       30.34F
KREMMLING      CLOUDY   N/A N/A N/A CALM      30.32F
LEADVILLE      CLOUDY    15  -3  44 NE8       30.12F WCI   4
MONARCH PASS   CLOUDY     7  -9  47 W39G46    30.20F WCI -19
SALIDA         FAIR      16   2  54 N3        30.32F
SUNLIGHT       CLOUDY     9   5  85 SW14G21   30.18S WCI  -8
WILKERSON PASS FAIR       9  -8  47 SW17G23   30.09F WCI -10
$$

COZ069>075-081900-
...SAN LUIS VALLEY/SANGRE DE CRISTO MOUNTAINS...

CITY           SKY/WX    TMP DP  RH WIND       PRES   REMARKS
ALAMOSA        FAIR      19   2  47 N5        30.30F WCI  12
LA VETA PASS   FAIR      16   9  73 NE22G30   30.15S WCI  -2
SAGUACHE       FAIR      21   1  42 S7        30.28F WCI  13
$$

COZ035-036-038>040-081900-
...NORTHERN COLORADO FRONT RANGE...

CITY           SKY/WX    TMP DP  RH WIND       PRES   REMARKS
DENVER INTL AP PTSUNNY   11   5  77 E3        30.38F
DMNS CITY PARK   N/A     15   2  56 NW2G9     30.37F
AURORA         PTSUNNY   10   4  77 CALM      30.36F
FRONT RANGE AP MOSUNNY   10   7  85 CALM      30.38
ERIE MUNI ARPT FAIR      10   7  89 CALM      30.41F
BOULDER MUN AP FAIR      12   5  73 NE5       30.38F WCI   4
CENTENNIAL     PTSUNNY   11   3  70 CALM      30.33F
BROOMFIELD     PTSUNNY   12   7  79 CALM      30.36F
FORT COLLINS   FAIR       9   3  78 SE3       30.42F
LONGMONT       FAIR      14   3  63 CALM      30.43F
$$

COZ041-046-047-076>085-087-088-081900-
...PIKES PEAK/PALMER DIVIDE AND SOUTHERN FOOTHILLS...

CITY           SKY/WX    TMP DP  RH WIND       PRES   REMARKS
COLO. SPRINGS  LGT SNOW  11   6  81 S10       30.36F VSB 3/4 WCI  -3
A. F. ACADEMY  CLOUDY     9   3  78 S15       30.31F WCI  -8
SCHRIEVER AFB  NOT AVBL
ELLICOTT       LGT SNOW N/A N/A N/A S12         N/A
FALCON         LGT SNOW  10   4  78 S10       30.32F WCI  -4
FORT CARSON    LGT SNOW  12   7  79 S13       30.37F VSB 1   WCI  -3
LIMON          FLURRIES  14   9  80 S13       30.42F WCI   0
MONUMENT HILL  FAIR      10   3  72 S15       30.26F WCI  -6
TRINIDAD       NOT AVBL
$$

COZ042>045-048>051-090-091-081900-
...NORTHEAST COLORADO...

CITY           SKY/WX    TMP DP  RH WIND       PRES   REMARKS
GREELEY ARPT   FAIR       2  -3  80 NE3       30.47F
AKRON          FAIR       9   0  67 S3        30.47F
BURLINGTON     FAIR      15  -1  49 N3        30.53F
WRAY           NOT AVBL
STERLING       FAIR       5   0  78 S3        30.53F
HOLYOKE        FAIR      18   1  49 NW6       30.56F WCI   9
FORT MORGAN    FAIR       9   1  69 CALM      30.48F
$$

COZ086-089-092>099-081900-
...SOUTHEAST COLORADO...

CITY           SKY/WX    TMP DP  RH WIND       PRES   REMARKS
PUEBLO         CLOUDY    19   9  65 SE15      30.46F WCI   5
LA JUNTA       FAIR      20   2  45 SE9       30.52F WCI   9
LAMAR          FAIR      18   1  47 SE5       30.57F WCI  11
SPRINGFIELD      N/A     19  -2  39 SE8       30.51F WCI   9
$$




USA.gov is the U.S. government's official web portal to all federal, state and local government web resources and services.